Drummond Island, MI

2:57 AM EDT on October 23, 2017 (GMT -0400)
Drummond Island

Weather History for KDRM - May, 2013

Change the Weather History Date:

Wednesday, May 22, 2013

  Actual Average (KCIU) Record (KCIU)
Temperature  
Mean Temperature 54 °F -  
Max Temperature 56 °F 69 °F 82 °F (1992)
Min Temperature 51 °F 39 °F 28 °F (1993)
Degree Days  
Heating Degree Days 12    
Growing Degree Days 4 (Base 50)    
Moisture  
Dew Point 54 °F    
Average Humidity 99    
Maximum Humidity 100    
Minimum Humidity 92    
Precipitation  
Precipitation 0.00 in - - ()
Sea Level Pressure  
Sea Level Pressure 29.72 in    
Wind  
Wind Speed 4 mph (NE)    
Max Wind Speed 8 mph    
Max Gust Speed -    
Visibility 5 miles    
Events Fog , Rain    
Averages and records for this station are not official NWS values.
T = Trace of Precipitation, MM = Missing Value Source: NWS Daily Summary

Daily Weather History Graph

Daily Weather History Graph

Search for Another Location

Airport or City:

Trip Planner

Search our weather history database for the weather conditions in past years. The results will help you decide how hot, cold, wet, or windy it might be!

Date:

Astronomy

May. 22, 2013 Rise Set
Actual Time 5:55 AM EDT 9:08 PM EDT
Civil Twilight 5:19 AM EDT 9:45 PM EDT
Nautical Twilight 4:32 AM EDT 10:32 PM EDT
Astronomical Twilight 3:34 AM EDT 11:31 PM EDT
Moon 6:22 PM EDT (5/22) 4:08 AM EDT (5/22)
Length of Visible Light 16h 26m
Length of Day
15h 13m
Waxing Gibbous, 91% of the Moon is Illuminated
May 22
Waxing Gibbous
May 25
Full
May 31
Last Quarter
Jun 8
New
Jun 16
First Quarter

Hourly Weather History & Observations

Time (EDT) Temp. Dew Point Humidity Pressure Visibility Wind Dir Wind Speed Gust Speed Precip Events Conditions
12:15 AM 54.7 °F 54.7 °F 100% 29.73 in 7.0 mi NE 3.5 mph - N/A   Overcast
12:36 AM 54.9 °F 54.9 °F 100% 29.73 in 10.0 mi NE 5.8 mph - N/A   Overcast
12:56 AM 54.7 °F 54.7 °F 100% 29.73 in 7.0 mi ENE 3.5 mph - N/A   Overcast
1:15 AM 54.7 °F 54.7 °F 100% 29.73 in 7.0 mi ENE 4.6 mph - N/A   Overcast
1:36 AM 54.5 °F 54.5 °F 100% 29.72 in 10.0 mi ENE 4.6 mph - N/A   Overcast
1:56 AM 54.5 °F 54.5 °F 100% 29.72 in 10.0 mi NE 5.8 mph - N/A   Overcast
2:15 AM 54.5 °F 54.5 °F 100% 29.72 in 10.0 mi NE 4.6 mph - N/A   Overcast
2:36 AM 54.5 °F 54.5 °F 100% 29.72 in 10.0 mi East 3.5 mph - N/A   Overcast
2:55 AM 54.5 °F 54.5 °F 100% 29.73 in 10.0 mi ENE 3.5 mph - N/A   Overcast
3:16 AM 54.5 °F 54.5 °F 100% 29.72 in 10.0 mi NE 4.6 mph - N/A   Overcast
3:36 AM 54.5 °F 54.5 °F 100% 29.71 in 10.0 mi East 5.8 mph - N/A   Overcast
3:55 AM 54.5 °F 54.5 °F 100% 29.71 in 10.0 mi ESE 3.5 mph - N/A   Overcast
4:16 AM 54.3 °F 54.3 °F 100% 29.71 in 4.0 mi East 4.6 mph - N/A   Overcast
4:36 AM 54.3 °F 54.3 °F 100% 29.71 in 2.5 mi East 3.5 mph - N/A   Overcast
4:55 AM 54.1 °F 54.1 °F 100% 29.71 in 1.8 mi ENE 4.6 mph - N/A   Overcast
5:16 AM 54.1 °F 54.1 °F 100% 29.72 in 1.5 mi Calm Calm - N/A   Overcast
5:36 AM 54.0 °F 54.0 °F 100% 29.72 in 1.0 mi Calm Calm - N/A   Overcast
5:55 AM 54.0 °F 54.0 °F 100% 29.72 in 0.5 mi NE 3.5 mph - N/A Fog Fog
6:16 AM 54.0 °F 54.0 °F 100% 29.71 in 0.5 mi NE 5.8 mph - N/A Fog Fog
6:36 AM 53.8 °F 53.8 °F 100% 29.70 in 0.5 mi East 4.6 mph - N/A Fog Fog
6:55 AM 53.8 °F 53.8 °F 100% 29.70 in 0.5 mi NE 3.5 mph - N/A Fog Fog
7:16 AM 54.0 °F 54.0 °F 100% 29.72 in 0.5 mi Calm Calm - N/A Fog Fog
7:35 AM 54.0 °F 54.0 °F 100% 29.73 in 0.5 mi ENE 4.6 mph - N/A Fog Fog
7:56 AM 54.0 °F 54.0 °F 100% 29.73 in 0.8 mi ENE 3.5 mph - N/A   Overcast
8:16 AM 54.0 °F 54.0 °F 100% 29.73 in 0.8 mi ENE 3.5 mph - N/A   Overcast
8:35 AM 54.1 °F 54.1 °F 100% 29.74 in 0.8 mi Calm Calm - N/A   Overcast
8:56 AM 54.1 °F 54.1 °F 100% 29.74 in 1.0 mi East 4.6 mph - N/A   Overcast
9:15 AM 54.1 °F 54.1 °F 100% 29.73 in 1.0 mi East 4.6 mph - N/A   Overcast
9:36 AM 54.5 °F 54.5 °F 100% 29.73 in 1.0 mi East 5.8 mph - N/A   Overcast
9:56 AM 54.5 °F 54.5 °F 100% 29.73 in 1.0 mi NE 4.6 mph - N/A   Overcast
10:15 AM 54.5 °F 54.5 °F 100% 29.73 in 1.0 mi Calm Calm - N/A   Overcast
10:36 AM 54.5 °F 54.5 °F 100% 29.72 in 1.0 mi East 3.5 mph - N/A   Overcast
10:56 AM 54.7 °F 54.7 °F 100% 29.73 in 1.2 mi ENE 4.6 mph - N/A   Overcast
11:15 AM 55.0 °F 55.0 °F 100% 29.73 in 0.8 mi ENE 3.5 mph - N/A   Overcast
11:36 AM 55.4 °F 55.4 °F 100% 29.73 in 1.0 mi NE 4.6 mph - N/A   Overcast
11:55 AM 55.4 °F 55.4 °F 100% 29.73 in 1.2 mi NE 4.6 mph - N/A   Overcast
12:16 PM 55.6 °F 55.6 °F 100% 29.73 in 1.2 mi NE 4.6 mph - N/A   Overcast
12:36 PM 55.4 °F 55.4 °F 100% 29.73 in 1.5 mi NNE 5.8 mph - N/A   Overcast
12:55 PM 55.2 °F 55.2 °F 100% 29.73 in 1.2 mi NE 6.9 mph - N/A   Overcast
1:16 PM 55.4 °F 55.4 °F 100% 29.72 in 1.8 mi NNE 6.9 mph - N/A   Overcast
1:36 PM 55.0 °F 55.0 °F 100% 29.72 in 2.0 mi NE 8.1 mph - N/A   Overcast
1:55 PM 54.9 °F 54.9 °F 100% 29.72 in 2.0 mi NE 6.9 mph - N/A   Overcast
2:16 PM 54.7 °F 54.7 °F 100% 29.72 in 5.0 mi NNE 5.8 mph - N/A   Overcast
2:35 PM 55.2 °F 55.2 °F 100% 29.72 in 10.0 mi NE 4.6 mph - N/A   Overcast
2:56 PM 56.3 °F 55.4 °F 97% 29.72 in 10.0 mi NE 4.6 mph - N/A   Overcast
3:16 PM 56.7 °F 54.7 °F 93% 29.71 in 10.0 mi NE 5.8 mph - N/A   Overcast
3:35 PM 56.7 °F 54.5 °F 92% 29.71 in 10.0 mi NNE 3.5 mph - N/A   Overcast
3:56 PM 56.3 °F 54.0 °F 92% 29.71 in 10.0 mi NNE 4.6 mph - N/A   Overcast
4:16 PM 56.1 °F 53.8 °F 92% 29.70 in 10.0 mi NE 5.8 mph - N/A   Light Drizzle
4:35 PM 56.3 °F 54.0 °F 92% 29.70 in 10.0 mi North 5.8 mph - N/A   Light Drizzle
4:56 PM 55.0 °F 53.2 °F 94% 29.71 in 10.0 mi Calm Calm - N/A Rain Rain
5:16 PM 54.5 °F 52.9 °F 94% 29.71 in 10.0 mi NE 8.1 mph - N/A   Drizzle
5:35 PM 53.8 °F 52.7 °F 96% 29.71 in 5.0 mi NE 4.6 mph - N/A Rain Rain
5:56 PM 52.9 °F 52.3 °F 98% 29.71 in 5.0 mi NE 4.6 mph - N/A Rain Rain
6:15 PM 52.7 °F 52.2 °F 98% 29.71 in 4.0 mi NE 5.8 mph - N/A Rain Rain
6:36 PM 52.7 °F 52.3 °F 99% 29.71 in 5.0 mi NE 5.8 mph - N/A Rain Light Rain
6:56 PM 52.9 °F 52.9 °F 100% 29.70 in 7.0 mi NNE 3.5 mph - N/A Rain Rain
7:15 PM 52.7 °F 52.7 °F 100% 29.71 in 10.0 mi NNE 3.5 mph - N/A Rain Rain
7:36 PM 52.7 °F 52.7 °F 100% 29.71 in 10.0 mi NE 4.6 mph - N/A Rain Light Rain
7:55 PM 52.7 °F 52.2 °F 98% 29.71 in 10.0 mi NNE 6.9 mph - N/A   Light Drizzle
8:16 PM 52.3 °F 52.0 °F 99% 29.72 in 10.0 mi NNE 5.8 mph - N/A   Light Drizzle
8:35 PM 52.3 °F 52.0 °F 99% 29.72 in 10.0 mi NNE 3.5 mph - N/A Rain Light Rain
8:56 PM 52.2 °F 51.8 °F 99% 29.73 in 10.0 mi NNE 5.8 mph - N/A Rain Light Rain
9:16 PM 52.0 °F 51.8 °F 99% 29.72 in 7.0 mi NNE 5.8 mph - N/A Rain Rain
9:35 PM 52.0 °F 52.0 °F 100% 29.72 in 3.0 mi NNE 5.8 mph - N/A Rain Heavy Rain
9:56 PM 52.2 °F 52.2 °F 100% 29.72 in 7.0 mi NNE 4.6 mph - N/A Rain Light Rain
10:16 PM 52.2 °F 52.2 °F 100% 29.73 in 4.0 mi NNE 6.9 mph - N/A Rain Heavy Rain
10:35 PM 52.2 °F 52.2 °F 100% 29.73 in 5.0 mi North 6.9 mph - N/A Rain Rain
10:56 PM 51.8 °F 51.8 °F 100% 29.74 in 5.0 mi NNE 6.9 mph - N/A Rain Heavy Rain
11:16 PM 51.8 °F 51.8 °F 100% 29.74 in 7.0 mi North 8.1 mph - N/A Rain Rain
11:35 PM 51.8 °F 51.8 °F 100% 29.73 in 7.0 mi North 6.9 mph - N/A Rain Rain
11:56 PM 51.8 °F 51.8 °F 100% 29.74 in 10.0 mi North 6.9 mph - N/A Rain Light Rain